Location: Squirrel Cove
(50.1074°N, 124.9139°W)
Time: 18:54:04
(UTC-08:00)

Envisat - Pass Details

Date: 05 December 2022
Orbit: 763 x 765 km, 98.2° (Epoch: 05 February)

Event Time Altitude Azimuth Distance (km) Brightness Sun altitude
Rises 05:04:44 0° 11° (NNE) 3,247 6.4 -27.4°
Reaches altitude 10° 05:07:03 10° 9° (N) 2,316 5.5 -27.0°
Enters shadow 05:09:33 29° 1° (N) 1,384 4.2 -26.6°
